www.pogodaiklimat.ru

Погода и климат >> Архив погоды >> Индия >> New Delhi


АРХИВ ПОГОДЫ в New Delhi

Время (UTC), дата Ветер
(напр.,м/с)
 
Видим.   Явления Облачность Т
(С)
Тd
(С)
f
(%)
Тe
(С)
Тes
(С)
Комфортность P
(гПа)
Po
(гПа)
Тmin
(С)
Tmax
(С)
R
(мм)
R24
(мм)
S
(см)
18 10.07 В 5 2000 м мгла 3/0
[Ac trans]
+32.4 +26.9 73 +50 +50 опасность
перегрева
997.2 997.0
21 10.07 В 3 2000 м дымка 3/0
[Ac trans]
+31.2 +26.8 78 +49 +49 опасность
перегрева
996.5 997.0
00 11.07 В 3 2000 м дымка 4/0
[Ac trans Ci fib]
+30.0 +27.2 85 +48 +48 опасность
перегрева
996.1 996.0
03 11.07 ЮВ 2 2000 м дымка 5/3 1200 м
[Sc Ac trans]
+32.4 +27.8 77 +53 +57 опасность
перегрева
997.7 998.0 +29.6 +39.1
06 11.07 штиль 0 2000 м мгла 6/4 1050 м
[Sc Ac trans]
+35.4 +27.2 63 +54 +68 опасность
перегрева
996.9 997.0
09 11.07 В 3 2000 м мгла {морось} 10/6 900 м
[Cb calv As op]
+35.0 +26.7 62 +52 +53 опасность
перегрева
994.3 994.0 0.0
12 11.07 В 3 2000 м мгла {морось} 9/4 900 м
[Cb calv Ac trans]
+33.4 +26.8 68 +51 +52 опасность
перегрева
992.6 993.0 +36.7 0.0
15 11.07 ЮВ 2 2000 м дымка {морось} 5/5 1200 м
[]
+30.6 +26.1 77 +46 +46 опасность
перегрева
994.7 995.0 0.0
18 11.07 ЮЗ 2 2000 м дымка {морось} 5/3 1200 м
[Sc Ac trans]
+31.0 +26.0 75 +46 +46 опасность
перегрева
997.7 998.0 0.0
21 11.07 штиль 0 2000 м дымка {морось} 5/3 1200 м
[Sc Ac trans]
+30.8 +25.7 74 +45 +45 опасность
перегрева
994.5 995.0 0.0
00 12.07 Ю 1 2000 м дымка 3/0
[Ac trans]
+29.6 +25.4 78 +43 +43 опасность
перегрева
995.0 995.0 0.0
03 12.07 штиль 0 2000 м мгла 5/3 1200 м
[Sc Ac trans]
+31.2 +25.9 73 +46 +53 опасность
перегрева
996.8 997.0 +28.6 +36.7 0.0
06 12.07 З 1 4000 м мгла 8/4 1050 м
[Sc Ac trans]
+33.6 +26.4 66 +50 +59 опасность
перегрева
996.6 997.0
09 12.07 В 2 4000 м мгла 6/4 1050 м
[Cb calv Ac trans]
+36.4 +26.2 56 +52 +60 опасность
перегрева
994.2 994.0
12 12.07 В 2 4000 м мгла 4/3 1050 м
[Cb calv Ac trans]
+36.4 +27.4 60 +55 +57 опасность
перегрева
992.2 992.0 +37.8
15 12.07 ЮВ 3 2000 м зарница 9/5 1050 м
[Sc Ac trans]
+31.6 +27.5 79 +51 +51 опасность
перегрева
996.0 996.0
18 12.07 ЮВ 4 2000 м дымка 9/5 1050 м
[Sc Ac trans]
+30.6 +27.0 81 +48 +48 опасность
перегрева
997.6 998.0
21 12.07 В 4 2000 м дымка 6/4 1050 м
[Sc Ac trans]
+29.8 +26.7 83 +46 +46 опасность
перегрева
995.9 996.0
00 13.07 В 2 2000 м дымка 6/4 1200 м
[Sc Ac trans]
+28.4 +25.6 85 +42 +42 опасность
перегрева
996.9 997.0
03 13.07 В 2 2000 м мгла 4/3 1200 м
[Sc Ac trans]
+31.6 +26.3 74 +48 +54 опасность
перегрева
997.4 997.0 +27.8 +37.8
06 13.07 С 1 2000 м мгла 6/5 1050 м
[Cb calv Ac trans]
+33.8 +27.2 69 +53 +63 опасность
перегрева
997.8 998.0
09 13.07 СЗ 1 2000 м дымка 9/4 900 м
[Cb calv Ac trans]
+27.0 -2 +4 очень
холодно
995.8 996.0
12 13.07 В 3 1000 м дождь {морось} 10/5 600 м
[Cb calv As op]
+26.2 +25.9 98 +39 +39 очень
душно
996.6 997.0 +34.2 53
15 13.07 штиль 0 2000 м дымка {дождь} 6/3 1050 м
[Sc Ac trans]
+26.8 +26.8 100 +42 +42 опасность
перегрева
996.3 996.0 54
18 13.07 штиль 0 2000 м дымка {дождь} 6/3 1050 м
[Sc Ac trans]
+27.4 +27.1 98 +43 +43 опасность
перегрева
997.2 997.0 54
21 13.07 штиль 0 2000 м дымка {дождь} 5/3 1050 м
[Sc Ac trans]
+28.2 +27.1 94 +45 +45 опасность
перегрева
997.1 997.0 54
00 14.07 штиль 0 2000 м дымка 9/4 750 м
[Cb calv Ac trans]
+27.4 +26.8 97 +43 +43 опасность
перегрева
996.5 997.0 54
03 14.07 штиль 0 1000 м дымка 9/4 750 м
[Sc Ac trans]
+29.0 +27.1 90 +46 +50 опасность
перегрева
997.5 998.0 +25.4 +34.2 54
06 14.07 В 1 2000 м мгла 9/4 1050 м
[Cb cap Ac trans]
+33.6 +27.0 68 +51 +59 опасность
перегрева
997.5 998.0
09 14.07 С 3 2000 м мгла 9/4 1050 м
[Cb calv Ac trans]
+32.4 +26.9 73 +50 +55 опасность
перегрева
995.6 996.0
12 14.07 СВ 3 2000 м дымка 9/4 900 м
[Cb calv Ac trans]
+32.0 +27.9 79 +52 +53 опасность
перегрева
994.1 994.0 +33.9
15 14.07 штиль 0 2000 м дымка 5/3 1200 м
[Sc Ac trans]
+29.6 +26.5 83 +45 +45 опасность
перегрева
995.3 995.0
18 14.07 В 2 2000 м дымка 6/3 1050 м
[Sc Ac trans]
+29.2 +26.7 86 +45 +45 опасность
перегрева
996.6 997.0
21 14.07 штиль 0 2000 м дымка 6/4 1080 м
[Sc Ac trans]
+28.8 +26.6 88 +45 +45 опасность
перегрева
996.5 997.0
00 15.07 штиль 0 2000 м дымка 6/4 1050 м
[Sc Ac trans]
+28.4 +26.4 89 +43 +43 опасность
перегрева
996.7 997.0
03 15.07 В 2 2000 м дымка 6/4 1050 м
[Cb calv Ac trans]
+30.8 +26.6 78 +47 +52 опасность
перегрева
997.5 998.0 +27.6 +33.9
06 15.07 В 3 2000 м мгла 5/3 1200 м
[Sc Ac trans]
+33.2 +26.9 70 +51 +61 опасность
перегрева
996.9 997.0
09 15.07 ЮВ 1 2000 м мгла 8/4 1050 м
[Cb calv Ac trans]
+35.2 +27.6 65 +55 +62 опасность
перегрева
995.6 996.0
12 15.07 ЮВ 2 2000 м мгла 9/4 1050 м
[Cb calv Ac trans]
+34.2 +27.6 69 +54 +55 опасность
перегрева
993.8 994.0 +35.4
15 15.07 штиль 0 2000 м дымка 5/3 1200 м
[Sc Ac trans]
+31.6 +27.5 79 +51 +51 опасность
перегрева
994.9 995.0
18 15.07 В 2 2000 м дымка 5/3 1200 м
[Sc Ac trans]
+31.0 +27.7 83 +51 +51 опасность
перегрева
996.6 997.0
21 15.07 В 3 2000 м дымка 8/4 900 м
[Cb calv Ac trans]
+29.8 +27.3 86 +47 +47 опасность
перегрева
997.4 997.0
00 16.07 В 3 2000 м дымка 8/4 900 м
[Sc Ac trans]
+29.4 +27.5 90 +48 +48 опасность
перегрева
996.9 997.0
03 16.07 ЮВ 2 2000 м дымка 8/4 900 м
[Cb calv Ac trans]
+31.8 +28.0 80 +52 +55 опасность
перегрева
997.5 998.0 +28.8 +35.4
06 16.07 В 1 2000 м слабый дождь 10/5 750 м
[Cb calv As op]
+32.2 +28.9 83 +55 +58 опасность
перегрева
996.7 997.0 5
09 16.07 С 2 2000 м дымка 10/6 750 м
[Cb calv As op]
+30.0 +27.8 88 +49 +50 опасность
перегрева
996.4 996.0 5
12 16.07 штиль 0 2000 м дымка {дождь} 10/6 900 м
[Cb calv As op]
+28.4 +28.4 100 +48 +48 опасность
перегрева
994.3 994.0 +34.1 32
15 16.07 штиль 0 2000 м дымка 8/4 1050 м
[Sc Ac trans]
+29.0 +28.2 95 +48 +48 опасность
перегрева
996.1 996.0 32
18 16.07 СВ 2 2000 м дымка 8/4 1200 м
[Sc Ac trans]
+29.0 +27.9 94 +48 +48 опасность
перегрева
998.6 999.0 32
21 16.07 В 1 2000 м дымка 6/4 1200 м
[Sc Ac trans]
+28.8 +27.7 94 +47 +47 опасность
перегрева
996.6 997.0 32
00 17.07 штиль 0 2000 м дымка 6/4 1200 м
[Sc Ac trans]
+28.6 +27.5 94 +46 +46 опасность
перегрева
997.5 998.0 32
03 17.07 В 2 2000 м дымка 4/3 1200 м
[Sc Ac trans]
+31.4 +27.6 80 +50 +56 опасность
перегрева
997.6 998.0 +28.0 +34.1 32
06 17.07 Ю 1 4000 м мгла 6/4 1050 м
[Sc diur, vesp Ac trans]
+34.0 +27.1 67 +52 +64 опасность
перегрева
998.0 998.0
09 17.07 В 2 4000 м мгла 6/4 1050 м
[Sc diur, vesp Ac trans]
+35.6 +27.7 64 +55 +64 опасность
перегрева
996.1 996.0
12 17.07 штиль 0 4000 м мгла 6/4 1050 м
[Sc Ac trans]
+35.6 +27.4 63 +55 +57 опасность
перегрева
993.8 994.0 +37.2
15 17.07 штиль 0 2000 м мгла 6/4 1200 м
[Sc Ac trans]
+33.0 +27.5 73 +52 +52 опасность
перегрева
996.3 996.0

 

Местоположение метеостанции New Delhi (Delhi, Индия): широта 28.58 долгота 77.20 высота над уровнем моря 216 м.

В архиве по умолчанию представлена погода в New Delhi за последнюю неделю. Архивные данные за месяц целиком и за предыдущие месяцы, начиная с января 2011 года, Вы можете получить, выбрав интересующий диапазон дат из раскрывающегося списка и нажав кнопку "Ввод!".


*Определитесь, кто Вы:
робот инопланетянин человек

Внимание! Время в таблицах - всемирное. Для получения местного времени необходимо прибавить поправку, которая в New Delhi равна 5.5 ч.

Смотрите также архив погоды в соседних городах и на ближайших метеорологических станциях:

Погода в New Delhi Airport (Delhi, Индия) (8 км)
Погода в Ridge (Delhi, Индия) (10 км)
Погода в New Delhi Aya Nagar (Delhi, Индия) (13 км)
Погода в Rohtak (Haryana, Индия) (67 км)
Погода в Meerut (Uttar Pradesh, Индия) (70 км)
Погода в Karnal (Haryana, Индия) (126 км)
Погода в Hissar (Haryana, Индия) (157 км)
Погода в Pilani (Rajasthan, Индия) (161 км)
Погода в Najibabad (Uttar Pradesh, Индия) (163 км)
Погода в Agra (Uttar Pradesh, Индия) (176 км)

Пояснения к столбцам:

Ветер - указаны скорость ветра в м/с - средняя за 10 мин, порывы в срок и между сроками (в фигурных скобках) и направление, откуда дует ветер: С - северный, СВ - северо-восточный, В - восточный, ЮВ - юго-восточный, Ю - южный, ЮЗ - юго-западный, З - западный, СЗ - северо-западный.
Видимость - горизонтальная дальность видимости в метрах или километрах. При видимости от 1 до 10 км при отсутствии осадков обычно наблюдается дымка, при ухудшении видимости до 1 км и менее - туман. В сухую погоду видимость может ухудшаться дымом, пылью или мглою.
Явления - указаны атмосферные явления, наблюдавшиеся в срок или в последний час перед сроком; фигурными скобками обозначены явления, наблюдавшиеся между сроками (за 1-3 часа до срока); квадратными скобками обозначены град или гололедные отложения с указанием их диаметра в мм.
Облачность - указаны через наклонную черту общая и нижняя облачность в баллах и высота нижней границы облаков в метрах; квадратными скобками обозначены формы облаков: Ci - перистые, Cs - перисто-слоистые, Cc - перисто-кучевые, Ac - высококучевые, As - высокослоистые, Sc - слоисто-кучевые, Ns - слоисто-дождевые, Cu - кучевые, Cb - кучево-дождевые. Подробнее классификацию облаков см. в Атласе облаков (PDF).
T - Температура воздуха - температура, измеренная на высоте 2 м над землей.
Td - Температура точки росы - температура, при понижении до которой содержащийся в воздухе водяной пар достигнет насыщения.
f - Относительная влажность воздуха - влажноcть воздуха, измеренная на высоте 2 м над землей.
Te - Эффективная температура - температура, которую ощущает одетый по сезону человек в тени. Характеристика душности погоды. При расчете учитывается влияние влажности воздуха и скорости ветра на теплоощущения человека.
Tes - Эффективная температура на солнце - температура, которую ощущает человек, с поправкой на солнечный нагрев. Характеристика знойности погоды. Зависит от высоты солнца над горизонтом, облачности и скорости ветра. Ночью, в пасмурную погоду, а также при ветре 12 м/с и более поправка равна нулю.
P - Атмосферное давление - приведенное к уровню моря атмосферное давление.
Po - Атмосферное давление - измеренное на уровне метеостанции атмосферное давление.
Tmin - Минимальная температура - минимум температуры воздуха на высоте 2 м над землей.
Tmax - Максимальная температура - максимум температуры воздуха на высоте 2 м над землей.
R - Количество осадков - Количество выпавших осадков за период времени, мм. При наведении курсора мыши на число - период времени, за который выпало указанное количество осадков.
R24 - Количество осадков - Количество выпавших осадков за 24 часа, мм.
S - Снежный покров - Высота снежного покрова, см. При наведении курсора мыши на число - состояние снежного покрова и степень покрытия местности в баллах.